Tracking 25648 objects as of 17-May-2022
HD Live streaming from Space Station
objects crossing your sky now

COSMOS 2251 DEB

Track COSMOS 2251 DEB now!
10-day predictions


NORAD ID: 37084
Int'l Code: 1993-036BFE
Perigee: 535.7 km
Apogee: 729.3 km
Inclination: 74.0 °
Period: 97.2 minutes
Semi major axis: 7003 km
RCS: 0.0049 m2 (small)
Launch date: June 16, 1993
Source: Commonwealth of Independent States (former USSR) (CIS)
Launch site: PLESETSK MISSILE AND SPACE COMPLEX (PKMTR)

Note: This is SATELLITE DEBRIS
aabbcc
Your satellite tracking list
Your tracking list is empty




NASA's NSSDC Master Catalog

Two Line Element Set (TLE):
1 37084U 93036BFE 22136.58138203  .00002110  00000-0  23405-3 0  9998
2 37084  74.0341 253.1448 0138214 317.8637  41.1976 14.81264948670316
Source of the keplerian elements: AFSPC